Location: Darmstadt
(49.8706°N, 8.6494°E)
Time: 07:28:34
(UTC+01:00)

CZ-4C R/B - Pass Details

Date: 31 October 2020
Orbit: 409 x 489 km, 97.7° (Epoch: 03 December)

Event Time Altitude Azimuth Distance (km) Brightness Sun altitude
Rises 17:40:46 0° 9° (N) 2,411 6.4 -6.5°
Reaches altitude 10° 17:42:47 10° 5° (N) 1,551 5.4 -6.8°
Maximum altitude 17:46:02 54° 288° (WNW) 545 3.7 -7.3°
Drops below altitude 10° 17:49:21 10° 210° (SSW) 1,581 6.3 -7.9°
Sets 17:51:25 0° 205° (SSW) 2,464 7.2 -8.2°
